Voltar ao catálogo

ONEWEB-0206

AtivoComunicaçõesPO
NORAD 48227·PAYLOAD·🇬🇧 United Kingdom

Lançado Apr 25, 2021 de Vostochny Cosmodrome

Loading…

Próximas Passagens (próximas 24 horas)

TLE

AtualizadoSource: CelesTrak SupGP

Época: Sep 14, 2026, 15:30 UTC

1 48227C 21031T   26257.64633519 -.00002615  00000+0 -70620-2 0  2578
2 48227  87.8908 271.8599 0002083  91.9230  10.4015 13.14507829    15

Acompanhe ONEWEB-0206 em tempo real com AllMySat

Download on the App Store